[Date Prev][Date Next][Thread Prev][Thread Next] - [Date Index][Thread Index][Author Index]

2 Line ISS Keps 7-8



ISS
1 25544U 98067A   02189.49599794  .00018428  00000-0  24006-3 0  6418
2 25544  51.6378 306.0056 0007912 335.0156 102.7431 15.58756326207357


----
Via the sarex mailing list at AMSAT.ORG courtesy of AMSAT-NA.
To unsubscribe, send "unsubscribe sarex" to Majordomo@amsat.org



AMSAT Top AMSAT Home